Orbital Elements at Epoch 2459200.5 (2020-Dec-17.0) TDB
Reference: JPL 30 (heliocentric ecliptic J2000)
Element | Value | Uncertainty (1-sigma) | Units |
e | .1691046979726711 | 3.3852e-08 | |
a | 2.598157465087768 | 9.711e-09 | au |
q | 2.15879683166866 | 9.075e-08 | au |
i | 5.493131760324008 | 3.8118e-06 | deg |
node | 73.08595680591793 | 3.3815e-05 | deg |
peri | 26.36642896403239 | 3.545e-05 | deg |
M | 54.94161220265596 | 1.0501e-05 | deg |
tp | 2458967.049113123308 (2020-Apr-27.54911312) | 4.4162e-05 | TDB |
period | 1529.666056496723 4.19 | 8.576e-06 2.348e-08 | d yr |
n | .2353454850299028 | 1.3195e-09 | deg/d |
Q | 3.037518098506876 | 1.1353e-08 | au |
|
| | Orbit Determination Parameters
Additional Information
|